Regional Weather Roundup
Issued by NWS

Home | Current Version | Previous Version | Graphics & Text | Print | Product List | Glossary On
Versions: 1 2 3 4 5 6 7 8 9 10 11 12 13 14 15 16 17 18 19 20 21 22 23 24 25 26 27 28 29 30 31 32 33 34 35 36 37 38 39 40 41 42 43 44 45 46 47 48 49 50
000
ASUS45 KPSR 272310
RWRAZ

ARIZONA REGIONAL HOURLY WEATHER ROUNDUP
NATIONAL WEATHER SERVICE PHOENIX AZ
400 PM MST MON APR 27 2015

NOTE: FAIR INDICATES FEW OR NO CLOUDS BELOW 12,000 FEET WITH NO
SIGNIFICANT WEATHER AND/OR OBSTRUCTIONS TO VISIBILITY.

AZZ001>003-036-280000-
NORTHWEST ARIZONA

CITY           SKY/WX    TMP DP  RH WIND       PRES   REMARKS
BULLHEAD CITY  SUNNY     84  28  13 N21       29.88F
KINGMAN        SUNNY     76  28  17 N7G21     29.98F
$$

AZZ004>008-015-016-018-280000-
NORTH CENTRAL ARIZONA

CITY           SKY/WX    TMP DP  RH WIND       PRES   REMARKS
GRAND CANYON   SUNNY     59  29  31 E5        30.13S
WILLIAMS       MOSUNNY   61  32  33 NE7G20    30.17S
PRESCOTT       MOSUNNY   71  32  23 N8        30.02F
FLAGSTAFF      PTSUNNY   59  32  36 E12       30.11F
PAYSON         PTSUNNY   68  36  30 VRB3      30.03S
$$

AZZ009>014-017-280000-
NORTHEAST ARIZONA

CITY           SKY/WX    TMP DP  RH WIND       PRES   REMARKS
WINSLOW        MOSUNNY   70  36  28 NE7       30.03F
SAINT JOHNS    MOSUNNY   65  30  27 NE6       30.02F
WINDOW ROCK    PTSUNNY   63  30  28 N6        30.08F
SHOW LOW       MOSUNNY   59  28  31 E12       30.08F
$$

AZZ023-280000-
GREATER PHOENIX AREA

CITY           SKY/WX    TMP DP  RH WIND       PRES   REMARKS
PHOENIX        MOSUNNY   83  35  18 CALM      29.82F
BUCKEYE        SUNNY     84  32  15 S8        29.84F
GLENDALE       MOSUNNY   84  36  17 NW5       29.85F
LUKE AFB       SUNNY     85  38  19 CALM      29.82F
DEER VALLEY    SUNNY     82  36  19 SW12      29.83F
SCOTTSDALE     SUNNY     83  36  18 W8        29.85F
MESA-FALCON    MOSUNNY   82  37  20 SW12      29.85F
MESA-GATEWAY   MOSUNNY   82  39  21 SW8       29.86F
CHANDLER       MOSUNNY   84  36  17 W7        29.85F
$$

AZZ027-028-280000-
SOUTHWEST MARICOPA COUNTY AND PINAL COUNTY

CITY           SKY/WX    TMP DP  RH WIND       PRES   REMARKS
CASA GRANDE    SUNNY     82  37  20 CALM      29.85F
GILA BEND      SUNNY     86  30  13 N9        29.83F
$$

AZZ503-504-507>509-280000-
SOUTHEAST ARIZONA

CITY           SKY/WX    TMP DP  RH WIND       PRES   REMARKS
TUCSON         MOSUNNY   79  36  21 SE8       29.90F
DAVIS-MONTHAN  SUNNY     79  38  23 VRB3      29.88F
RYAN FIELD       N/A     81  37  21 NW14G22   29.89F
NOGALES        SUNNY     75  32  20 N9G18     29.92S
SIERRA VISTA   MOSUNNY   70  31  23 N13G20    29.98S
DOUGLAS        MOSUNNY   73  35  25 VRB3      29.95S
SAFFORD        SUNNY     75  37  25 VRB3      29.90S
$$

AZZ020-021-025-026-031-280000-
SOUTHWEST ARIZONA

CITY           SKY/WX    TMP DP  RH WIND       PRES   REMARKS
YUMA           SUNNY     88  26  10 VRB3      29.84F
$$

CAZ031-033-041-043-047-048-061-280000-
SOUTHERN CALIFORNIA

CITY           SKY/WX    TMP DP  RH WIND       PRES   REMARKS
DOWNTOWN L.A.  SUNNY     79  37  22 MISG      29.90F
L.A. AIRPORT   SUNNY     74  41  30 W15       29.91F
SAN DIEGO      SUNNY     78  45  30 NW10      29.89F
BURBANK        SUNNY     80  32  17 S10G17    29.90F
ONTARIO        SUNNY     86  25  11 W8        29.88F
RIVERSIDE      SUNNY     87  14   6 N7G20     29.88F
PALM SPRINGS   SUNNY     89   8   5 VRB3      29.90F
EL CENTRO NAS  SUNNY     89  19   7 NE8       29.87F
IMPERIAL       SUNNY     87  24  10 N5        29.85F
BLYTHE         SUNNY     88  24  10 N8        29.85F
NEEDLES        SUNNY     88  23   9 N17G23    29.88F
$$

NVZ020-UTZ003-280000-
SOUTHERN NEVADA-UTAH

CITY           SKY/WX    TMP DP  RH WIND       PRES   REMARKS
LAS VEGAS      MOSUNNY   80  21  11 N8        29.95F
SALT LAKE CITY MOSUNNY   60  38  43 W14       30.19F
$$

NMZ009-TXZ055-280000-
NEW MEXICO-WEST TEXAS

CITY           SKY/WX    TMP DP  RH WIND       PRES   REMARKS
ALBUQUERQUE    PTSUNNY   60  38  43 SE16      30.05S
EL PASO        MOSUNNY   70  32  24 N23G33    29.95R
$$


........................KEY........................
SKY/WX - SKY CONDITION/WEATHER
TMP    - TEMPERATURE IN FAHRENHEIT
DP     - DEW POINT IN FAHRENHEIT
RH     - RELATIVE HUMIDITY IN PERCENT
WIND   - DIRECTION AND SPEED IN MILES PER HOUR (MPH)
VRB    - VARIABLE WIND DIRECTION
PRES   - MEAN SEA LEVEL PRESSURE IN INCHES OF MERCURY
         F - FALLING PRESSURE   R - RISING PRESSURE
         S - STEADY PRESSURE
VSB    - VISIBILITY IN MILES
HX     - HEAT INDEX IN FAHRENHEIT
WCI    - WIND CHILL INDEX IN FAHRENHEIT
TC     - TEMPERATURE IN CELSIUS WHICH IS ALSO KNOWN AS
         TEMPERATURE IN CENTIGRADE
AFB    - AIR FORCE BASE
         LUKE AFB IS LUKE AIR FORCE BASE
         DAVIS-MONTHAN IS DAVIS-MONTHAN AIR FORCE BASE
NAS    - NAVAL AIR STATION
         EL CENTRO NAS IS EL CENTRO NAVAL AIR STATION
N/A    - NOT AVAILABLE



USA.gov is the U.S. government's official web portal to all federal, state and local government web resources and services.